﻿測定場所 (Monitoring sites),日付 (Measurement date),時間 (Measurement time),線量率 最大値 (max) μGy/h,線量率 最小値 (min) μGy/h,線量率 平均値 (average) μGy/h,
小平 (Kodaira),2021-01-24,23:01～24:00,0.0380,0.0334,0.0356,
小平 (Kodaira),2021-01-24,22:01～23:00,0.0383,0.0333,0.0359,
小平 (Kodaira),2021-01-24,21:01～22:00,0.0394,0.0344,0.0364,
小平 (Kodaira),2021-01-24,20:01～21:00,0.0380,0.0325,0.0352,
小平 (Kodaira),2021-01-24,19:01～20:00,0.0369,0.0324,0.0348,
小平 (Kodaira),2021-01-24,18:01～19:00,0.0361,0.0300,0.0335,
小平 (Kodaira),2021-01-24,17:01～18:00,0.0333,0.0281,0.0306,
小平 (Kodaira),2021-01-24,16:01～17:00,0.0327,0.0287,0.0304,
小平 (Kodaira),2021-01-24,15:01～16:00,0.0333,0.0296,0.0313,
小平 (Kodaira),2021-01-24,14:01～15:00,0.0338,0.0292,0.0311,
小平 (Kodaira),2021-01-24,13:01～14:00,0.0328,0.0287,0.0310,
小平 (Kodaira),2021-01-24,12:01～13:00,0.0386,0.0305,0.0336,
小平 (Kodaira),2021-01-24,11:01～12:00,0.0420,0.0355,0.0379,
小平 (Kodaira),2021-01-24,10:01～11:00,0.0453,0.0384,0.0413,
小平 (Kodaira),2021-01-24,09:01～10:00,0.0466,0.0403,0.0431,
小平 (Kodaira),2021-01-24,08:01～09:00,0.0438,0.0357,0.0396,
小平 (Kodaira),2021-01-24,07:01～08:00,0.0408,0.0351,0.0376,
小平 (Kodaira),2021-01-24,06:01～07:00,0.0436,0.0348,0.0399,
小平 (Kodaira),2021-01-24,05:01～06:00,0.0468,0.0387,0.0421,
小平 (Kodaira),2021-01-24,04:01～05:00,0.0468,0.0366,0.0423,
小平 (Kodaira),2021-01-24,03:01～04:00,0.0473,0.0372,0.0419,
小平 (Kodaira),2021-01-24,02:01～03:00,0.0488,0.0398,0.0434,
小平 (Kodaira),2021-01-24,01:01～02:00,0.0460,0.0386,0.0422,
小平 (Kodaira),2021-01-24,00:01～01:00,0.0466,0.0366,0.0422,
小平 (Kodaira),2021-01-23,23:01～24:00,0.0483,0.0398,0.0431,
小平 (Kodaira),2021-01-23,22:01～23:00,0.0467,0.0399,0.0424,
小平 (Kodaira),2021-01-23,21:01～22:00,0.0500,0.0432,0.0459,
小平 (Kodaira),2021-01-23,20:01～21:00,0.0506,0.0430,0.0469,
小平 (Kodaira),2021-01-23,19:01～20:00,0.0511,0.0438,0.0479,
小平 (Kodaira),2021-01-23,18:01～19:00,0.0529,0.0436,0.0471,
小平 (Kodaira),2021-01-23,17:01～18:00,0.0494,0.0427,0.0457,
小平 (Kodaira),2021-01-23,16:01～17:00,0.0482,0.0425,0.0455,
小平 (Kodaira),2021-01-23,15:01～16:00,0.0498,0.0420,0.0453,
小平 (Kodaira),2021-01-23,14:01～15:00,0.0490,0.0416,0.0452,
小平 (Kodaira),2021-01-23,13:01～14:00,0.0501,0.0420,0.0448,
小平 (Kodaira),2021-01-23,12:01～13:00,0.0474,0.0402,0.0439,
小平 (Kodaira),2021-01-23,11:01～12:00,0.0483,0.0409,0.0441,
小平 (Kodaira),2021-01-23,10:01～11:00,0.0488,0.0397,0.0439,
小平 (Kodaira),2021-01-23,09:01～10:00,0.0434,0.0324,0.0373,
小平 (Kodaira),2021-01-23,08:01～09:00,0.0331,0.0292,0.0312,
小平 (Kodaira),2021-01-23,07:01～08:00,0.0323,0.0287,0.0303,
小平 (Kodaira),2021-01-23,06:01～07:00,0.0327,0.0278,0.0302,
小平 (Kodaira),2021-01-23,05:01～06:00,0.0335,0.0282,0.0305,
小平 (Kodaira),2021-01-23,04:01～05:00,0.0326,0.0282,0.0303,
小平 (Kodaira),2021-01-23,03:01～04:00,0.0327,0.0288,0.0309,
小平 (Kodaira),2021-01-23,02:01～03:00,0.0331,0.0293,0.0309,
小平 (Kodaira),2021-01-23,01:01～02:00,0.0340,0.0295,0.0316,
小平 (Kodaira),2021-01-23,00:01～01:00,0.0333,0.0294,0.0316,
小平 (Kodaira),2021-01-22,23:01～24:00,0.0334,0.0301,0.0317,
小平 (Kodaira),2021-01-22,22:01～23:00,0.0339,0.0292,0.0316,
小平 (Kodaira),2021-01-22,21:01～22:00,0.0331,0.0301,0.0316,
小平 (Kodaira),2021-01-22,20:01～21:00,0.0332,0.0293,0.0312,
小平 (Kodaira),2021-01-22,19:01～20:00,0.0339,0.0296,0.0314,
小平 (Kodaira),2021-01-22,18:01～19:00,0.0330,0.0297,0.0313,
小平 (Kodaira),2021-01-22,17:01～18:00,0.0330,0.0291,0.0310,
小平 (Kodaira),2021-01-22,16:01～17:00,0.0326,0.0280,0.0308,
小平 (Kodaira),2021-01-22,15:01～16:00,0.0333,0.0288,0.0307,
小平 (Kodaira),2021-01-22,14:01～15:00,0.0333,0.0286,0.0309,
小平 (Kodaira),2021-01-22,13:01～14:00,0.0327,0.0290,0.0310,
小平 (Kodaira),2021-01-22,12:01～13:00,0.0339,0.0294,0.0313,
小平 (Kodaira),2021-01-22,11:01～12:00,0.0342,0.0295,0.0316,
小平 (Kodaira),2021-01-22,10:01～11:00,0.0336,0.0302,0.0321,
小平 (Kodaira),2021-01-22,09:01～10:00,0.0339,0.0309,0.0322,
小平 (Kodaira),2021-01-22,08:01～09:00,0.0348,0.0306,0.0328,
小平 (Kodaira),2021-01-22,07:01～08:00,0.0353,0.0313,0.0330,
小平 (Kodaira),2021-01-22,06:01～07:00,0.0355,0.0310,0.0336,
小平 (Kodaira),2021-01-22,05:01～06:00,0.0372,0.0306,0.0333,
小平 (Kodaira),2021-01-22,04:01～05:00,0.0358,0.0308,0.0332,
小平 (Kodaira),2021-01-22,03:01～04:00,0.0350,0.0305,0.0328,
小平 (Kodaira),2021-01-22,02:01～03:00,0.0350,0.0311,0.0330,
小平 (Kodaira),2021-01-22,01:01～02:00,0.0344,0.0310,0.0326,
小平 (Kodaira),2021-01-22,00:01～01:00,0.0343,0.0303,0.0318,
小平 (Kodaira),2021-01-21,23:01～24:00,0.0335,0.0294,0.0314,
小平 (Kodaira),2021-01-21,22:01～23:00,0.0341,0.0298,0.0321,
小平 (Kodaira),2021-01-21,21:01～22:00,0.0334,0.0294,0.0315,
小平 (Kodaira),2021-01-21,20:01～21:00,0.0333,0.0291,0.0311,
小平 (Kodaira),2021-01-21,19:01～20:00,0.0324,0.0284,0.0304,
小平 (Kodaira),2021-01-21,18:01～19:00,0.0320,0.0284,0.0301,
小平 (Kodaira),2021-01-21,17:01～18:00,0.0325,0.0280,0.0302,
小平 (Kodaira),2021-01-21,16:01～17:00,0.0322,0.0278,0.0303,
小平 (Kodaira),2021-01-21,15:01～16:00,0.0322,0.0281,0.0304,
小平 (Kodaira),2021-01-21,14:01～15:00,0.0324,0.0284,0.0305,
小平 (Kodaira),2021-01-21,13:01～14:00,0.0334,0.0289,0.0307,
小平 (Kodaira),2021-01-21,12:01～13:00,0.0331,0.0286,0.0309,
小平 (Kodaira),2021-01-21,11:01～12:00,0.0335,0.0289,0.0311,
小平 (Kodaira),2021-01-21,10:01～11:00,0.0325,0.0289,0.0308,
小平 (Kodaira),2021-01-21,09:01～10:00,0.0324,0.0290,0.0309,
小平 (Kodaira),2021-01-21,08:01～09:00,0.0341,0.0298,0.0318,
小平 (Kodaira),2021-01-21,07:01～08:00,0.0337,0.0305,0.0319,
小平 (Kodaira),2021-01-21,06:01～07:00,0.0332,0.0299,0.0316,
小平 (Kodaira),2021-01-21,05:01～06:00,0.0335,0.0292,0.0314,
小平 (Kodaira),2021-01-21,04:01～05:00,0.0330,0.0294,0.0310,
小平 (Kodaira),2021-01-21,03:01～04:00,0.0335,0.0279,0.0308,
小平 (Kodaira),2021-01-21,02:01～03:00,0.0328,0.0282,0.0308,
小平 (Kodaira),2021-01-21,01:01～02:00,0.0321,0.0283,0.0305,
小平 (Kodaira),2021-01-21,00:01～01:00,0.0328,0.0289,0.0306,
小平 (Kodaira),2021-01-20,23:01～24:00,0.0327,0.0286,0.0306,
小平 (Kodaira),2021-01-20,22:01～23:00,0.0331,0.0286,0.0308,
小平 (Kodaira),2021-01-20,21:01～22:00,0.0324,0.0278,0.0307,
小平 (Kodaira),2021-01-20,20:01～21:00,0.0319,0.0277,0.0300,
小平 (Kodaira),2021-01-20,19:01～20:00,0.0314,0.0277,0.0295,
小平 (Kodaira),2021-01-20,18:01～19:00,0.0313,0.0270,0.0292,
小平 (Kodaira),2021-01-20,17:01～18:00,0.0318,0.0278,0.0297,
小平 (Kodaira),2021-01-20,16:01～17:00,0.0318,0.0272,0.0296,
小平 (Kodaira),2021-01-20,15:01～16:00,0.0323,0.0287,0.0302,
小平 (Kodaira),2021-01-20,14:01～15:00,0.0327,0.0278,0.0301,
小平 (Kodaira),2021-01-20,13:01～14:00,0.0314,0.0284,0.0299,
小平 (Kodaira),2021-01-20,12:01～13:00,0.0327,0.0281,0.0301,
小平 (Kodaira),2021-01-20,11:01～12:00,0.0320,0.0282,0.0300,
小平 (Kodaira),2021-01-20,10:01～11:00,0.0321,0.0276,0.0297,
小平 (Kodaira),2021-01-20,09:01～10:00,0.0323,0.0280,0.0295,
小平 (Kodaira),2021-01-20,08:01～09:00,0.0323,0.0268,0.0296,
小平 (Kodaira),2021-01-20,07:01～08:00,0.0318,0.0276,0.0295,
小平 (Kodaira),2021-01-20,06:01～07:00,0.0316,0.0281,0.0298,
小平 (Kodaira),2021-01-20,05:01～06:00,0.0319,0.0286,0.0302,
小平 (Kodaira),2021-01-20,04:01～05:00,0.0321,0.0284,0.0300,
小平 (Kodaira),2021-01-20,03:01～04:00,0.0325,0.0282,0.0300,
小平 (Kodaira),2021-01-20,02:01～03:00,0.0323,0.0281,0.0301,
小平 (Kodaira),2021-01-20,01:01～02:00,0.0329,0.0283,0.0302,
小平 (Kodaira),2021-01-20,00:01～01:00,0.0316,0.0281,0.0299,
小平 (Kodaira),2021-01-19,23:01～24:00,0.0324,0.0285,0.0299,
小平 (Kodaira),2021-01-19,22:01～23:00,0.0316,0.0282,0.0297,
小平 (Kodaira),2021-01-19,21:01～22:00,0.0321,0.0280,0.0298,
小平 (Kodaira),2021-01-19,20:01～21:00,0.0317,0.0278,0.0299,
小平 (Kodaira),2021-01-19,19:01～20:00,0.0321,0.0280,0.0299,
小平 (Kodaira),2021-01-19,18:01～19:00,0.0313,0.0280,0.0297,
小平 (Kodaira),2021-01-19,17:01～18:00,0.0320,0.0281,0.0296,
小平 (Kodaira),2021-01-19,16:01～17:00,0.0313,0.0279,0.0298,
小平 (Kodaira),2021-01-19,15:01～16:00,0.0328,0.0284,0.0305,
小平 (Kodaira),2021-01-19,14:01～15:00,0.0324,0.0277,0.0302,
小平 (Kodaira),2021-01-19,13:01～14:00,0.0323,0.0286,0.0305,
小平 (Kodaira),2021-01-19,12:01～13:00,0.0323,0.0289,0.0306,
小平 (Kodaira),2021-01-19,11:01～12:00,0.0334,0.0288,0.0308,
小平 (Kodaira),2021-01-19,10:01～11:00,0.0326,0.0288,0.0306,
小平 (Kodaira),2021-01-19,09:01～10:00,0.0327,0.0284,0.0305,
小平 (Kodaira),2021-01-19,08:01～09:00,0.0329,0.0287,0.0302,
小平 (Kodaira),2021-01-19,07:01～08:00,0.0332,0.0290,0.0307,
小平 (Kodaira),2021-01-19,06:01～07:00,0.0338,0.0290,0.0313,
小平 (Kodaira),2021-01-19,05:01～06:00,0.0334,0.0300,0.0315,
小平 (Kodaira),2021-01-19,04:01～05:00,0.0330,0.0298,0.0315,
小平 (Kodaira),2021-01-19,03:01～04:00,0.0330,0.0288,0.0308,
小平 (Kodaira),2021-01-19,02:01～03:00,0.0327,0.0284,0.0304,
小平 (Kodaira),2021-01-19,01:01～02:00,0.0320,0.0276,0.0303,
小平 (Kodaira),2021-01-19,00:01～01:00,0.0325,0.0285,0.0303,
小平 (Kodaira),2021-01-18,23:01～24:00,0.0323,0.0287,0.0302,
小平 (Kodaira),2021-01-18,22:01～23:00,0.0324,0.0285,0.0306,
小平 (Kodaira),2021-01-18,21:01～22:00,0.0334,0.0295,0.0313,
小平 (Kodaira),2021-01-18,20:01～21:00,0.0341,0.0296,0.0312,
小平 (Kodaira),2021-01-18,19:01～20:00,0.0332,0.0290,0.0308,
小平 (Kodaira),2021-01-18,18:01～19:00,0.0327,0.0286,0.0303,
小平 (Kodaira),2021-01-18,17:01～18:00,0.0328,0.0285,0.0302,
小平 (Kodaira),2021-01-18,16:01～17:00,0.0323,0.0289,0.0305,
小平 (Kodaira),2021-01-18,15:01～16:00,0.0330,0.0282,0.0309,
小平 (Kodaira),2021-01-18,14:01～15:00,0.0337,0.0291,0.0313,
小平 (Kodaira),2021-01-18,13:01～14:00,0.0338,0.0293,0.0311,
小平 (Kodaira),2021-01-18,12:01～13:00,0.0336,0.0294,0.0311,
小平 (Kodaira),2021-01-18,11:01～12:00,0.0341,0.0287,0.0310,
小平 (Kodaira),2021-01-18,10:01～11:00,0.0333,0.0284,0.0311,
小平 (Kodaira),2021-01-18,09:01～10:00,0.0328,0.0288,0.0309,
小平 (Kodaira),2021-01-18,08:01～09:00,0.0330,0.0288,0.0312,
小平 (Kodaira),2021-01-18,07:01～08:00,0.0331,0.0291,0.0309,
小平 (Kodaira),2021-01-18,06:01～07:00,0.0328,0.0290,0.0309,
小平 (Kodaira),2021-01-18,05:01～06:00,0.0330,0.0289,0.0309,
小平 (Kodaira),2021-01-18,04:01～05:00,0.0332,0.0291,0.0310,
小平 (Kodaira),2021-01-18,03:01～04:00,0.0332,0.0284,0.0309,
小平 (Kodaira),2021-01-18,02:01～03:00,0.0333,0.0292,0.0310,
小平 (Kodaira),2021-01-18,01:01～02:00,0.0332,0.0290,0.0309,
小平 (Kodaira),2021-01-18,00:01～01:00,0.0327,0.0287,0.0310,
